Regional Weather Roundup
Issued by NWS Bismarck, ND

Home | Current Version | Previous Version | Text Only | Print | Product List | Glossary On
Versions: 1 2 3 4 5 6 7 8 9 10 11 12 13 14 15 16 17 18 19 20 21 22 23 24 25 26 27 28 29 30 31 32 33 34 35 36 37 38 39 40 41 42 43 44 45 46 47 48 49 50
000
ASUS43 KBIS 130410
RWRBIS

NWR BROADCAST TEXT
NATIONAL WEATHER SERVICE BISMARCK ND
1000 PM CST FRI FEB 12 2016

NOTE: "FAIR" INDICATES FEW OR NO CLOUDS BELOW 12,000 FEET WITH NO
SIGNIFICANT WEATHER AND/OR OBSTRUCTIONS TO VISIBILITY.


CITY           SKY/WX    TMP DP  RH WIND       PRES   REMARKS
WILLISTON      CLOUDY    12   2  64 SE10      30.38F WCI  -1
MINOT          CLOUDY     4  -7  60 SE9       30.50F WCI -10
MINOT AFB      CLOUDY    -2  -7  78 CALM      30.49F
BISMARCK       CLOUDY     2  -5  72 E8        30.55R WCI -12
DICKINSON      CLOUDY    10   3  73 SE18      30.31F WCI  -8
GARRISON         N/A      2  -4  76 SE9       30.46F WCI -13
HETTINGER ARPT LGT SNOW  11   6  81 SE16      30.36F WCI  -6
JAMESTOWN      CLOUDY    -9 -13  83 CALM      30.59S
BEACH          CLOUDY    14  12  92 SE18      30.29F WCI  -3
CARRINGTON     FAIR      -4  -9  77 SE3       30.59F
HAZEN          FAIR       3  -4  72 SE5       30.50F WCI  -6
LINTON         FAIR       0  -4  85 SE8       30.55S WCI -15
MANDAN         FAIR       1  -4  78 SE8       30.51F WCI -12
OAKES          FAIR      -4  -9  77 N3        30.63F
RUGBY          FAIR      -2  -8  78 SE7       30.55F WCI -16
STANLEY        FAIR       5   0  78 SE10      30.43S WCI -10
TIOGA          FAIR       7   1  78 SE16      30.43F WCI -11
WATFORD CITY   MOCLDY    10   1  67 SE12      30.38S WCI  -4
$$

CITY           SKY/WX    TMP DP  RH WIND       PRES   REMARKS
GRAND FORKS    CLOUDY    -6 -13  71 NW3       30.67F
GRAND FORKS AF CLOUDY    -8 -14  74 N2        30.65F
DEVILS LAKE    CLOUDY   -17 -22  78 CALM      30.59F
FARGO          CLOUDY    -5 -13  68 N5        30.67F WCI -16
CAVALIER       FAIR      -8 -11  84 CALM      30.66F
GRAFTON        FAIR      -8 -13  77 CALM      30.68F
GWINNER        FAIR      -9 -15  77 NW5       30.65R WCI -21
LANGDON        FAIR     -18 -24  76 CALM      30.56F
ROLLA          FAIR     -20 -26  76 SW8       30.53F WCI -39
WALHALLA       FAIR      -9 -15  77 CALM      30.65F
$$

CITY           SKY/WX    TMP DP  RH WIND       PRES   REMARKS
ABERDEEN       CLOUDY    -1  -9  68 E3        30.63F
MOBRIDGE       CLOUDY     6   0  76 SE10      30.50S WCI  -9
BUFFALO          N/A     20  16  84 SE17      30.22F WCI   5
RAPID CITY     CLOUDY    23  21  92 SE16      30.28F WCI  10
GLASGOW        CLOUDY    18  13  80 E21       30.17F WCI   1
SIDNEY         CLOUDY    16   7  67 SE13      30.33F WCI   2
WOLF POINT     LGT SNOW  19  13  77 E16       30.28S WCI   4
GLENDIVE       CLOUDY    19  16  86 E7        30.27F WCI  10
MILES CITY     MIX PCPN  31  26  82 SE16      30.15F WCI  20
BAKER          LGT SNOW  20  15  81 SE21      30.24F WCI   4
$$

CITY           SKY/WX    TMP DP  RH WIND       PRES   REMARKS
BILLINGS       CLOUDY    35  30  82 N6        30.07F
GREAT FALLS    CLOUDY    45  32  60 SW13      29.99F
REGINA         CLOUDY     9   0  66 SE21      30.33F WCI -11
$$




USA.gov is the U.S. government's official web portal to all federal, state and local government web resources and services.